Theta_e
329 327 326 324 313 312 307 308 313 311 312 318 318 315 315 318 314 312 336 340 340 340 344 345 347 347 345 343 342 343 340 338 338 338 338 338 339 337 340 339 340 340 338 336 334 334 334 334 333
323 324 324 320 309 305 307 310 308 313 319 320 319 318 316 317 326 328 332 340 341 340 342 344 345 347 345 343 343 342 340 338 338 338 339 338 338 337 339 339 339 338 337 334 334 335 334 333 332
325 323 320 314 310 305 306 309 312 318 320 319 318 322 320 321 328 331 338 340 340 340 342 344 345 346 344 343 343 342 340 337 336 337 339 338 338 336 338 339 339 337 334 334 335 335 333 332 334
323 324 321 310 306 309 309 312 315 317 318 320 321 315 324 331 330 336 339 340 339 339 342 343 345 345 344 344 342 341 339 337 338 338 337 338 336 336 337 337 337 337 336 335 334 332 333 332 331
325 320 312 309 309 309 309 313 317 316 316 318 320 314 319 331 336 339 338 339 339 339 342 344 344 345 345 344 342 342 340 339 337 337 336 336 333 332 336 337 336 335 336 334 333 333 331 331 331
317 318 307 306 309 310 309 315 317 316 316 318 317 316 320 333 335 337 339 337 339 339 340 342 339 342 343 343 343 342 341 340 338 337 335 334 333 332 333 335 333 333 335 335 333 331 331 330 330
314 312 308 308 309 310 310 317 315 315 315 316 320 312 322 329 336 337 338 339 338 338 338 340 342 340 338 339 340 340 340 339 339 338 335 335 335 333 333 334 332 334 333 332 332 331 331 330 329
315 313 308 308 307 308 313 315 317 316 314 322 323 312 314 328 336 337 337 337 337 336 335 336 338 340 340 341 333 335 336 336 336 335 332 330 331 331 330 331 334 333 333 332 332 331 330 329 328
317 307 305 307 308 310 312 313 316 319 317 320 322 320 324 334 335 333 332 332 334 333 333 334 335 336 337 338 335 331 332 332 331 329 327 325 329 329 328 329 332 333 332 330 329 329 329 329 327
311 307 307 312 313 311 311 311 314 314 314 317 320 324 327 333 330 329 328 327 330 332 332 333 334 335 337 335 337 337 335 333 331 330 329 330 330 330 329 326 328 331 330 330 329 328 327 325 327
311 306 310 311 312 311 311 310 313 312 310 314 316 321 325 330 328 327 327 329 331 333 332 332 333 335 335 334 335 335 334 334 331 331 330 331 330 330 329 329 327 328 324 328 328 326 327 328 328
307 310 310 311 308 308 309 313 311 313 313 317 319 322 325 328 327 327 327 328 332 332 332 332 333 333 335 336 335 334 333 333 332 330 331 330 329 329 327 327 326 329 327 328 328 328 328 328 327
309 310 311 312 309 310 309 308 310 312 317 316 316 321 324 326 328 330 330 331 332 332 333 333 334 333 334 334 335 334 333 333 332 330 330 329 328 328 327 327 326 326 327 327 327 327 327 327 327
311 311 311 312 311 310 307 309 307 311 315 316 316 317 321 324 326 328 329 329 329 332 333 334 333 334 334 334 334 334 334 333 333 331 329 328 327 327 326 326 325 325 326 327 327 327 326 326 326
311 306 309 310 311 309 309 306 306 311 310 311 313 316 318 321 325 326 329 329 330 332 334 334 333 334 333 333 334 334 334 333 333 331 329 328 328 327 325 325 325 325 326 327 328 328 327 326 325
306 306 301 309 310 311 309 300 310 314 312 310 312 315 317 319 323 326 329 329 330 332 332 334 334 333 334 333 334 334 334 333 332 331 330 328 328 328 326 325 324 325 326 327 327 327 325 324 324
304 298 300 303 311 309 307 302 309 315 315 312 312 315 315 317 321 324 327 329 330 332 332 333 334 332 333 335 334 334 333 333 333 332 330 329 329 328 327 325 325 326 327 327 327 326 326 323 323
298 298 301 301 306 307 304 304 308 311 310 312 314 316 317 316 316 321 324 328 330 331 332 332 334 334 334 334 335 335 333 333 333 332 331 329 329 329 329 328 328 327 327 326 327 326 326 324 323
301 297 299 303 304 302 303 304 306 310 309 309 311 314 315 316 317 319 322 325 328 330 331 331 332 334 334 333 332 331 330 331 332 333 332 329 329 329 329 329 328 328 326 326 326 326 324 322 324
296 295 296 301 302 301 302 301 306 308 309 310 309 310 311 315 317 317 318 322 325 327 329 331 332 333 334 334 334 333 331 332 332 333 333 332 330 329 328 328 328 327 326 326 326 326 323 321 323
294 294 294 295 300 302 300 298 302 307 309 310 311 312 311 312 314 317 317 317 323 325 328 330 331 333 334 334 334 332 332 331 330 330 330 331 331 330 329 329 328 328 328 326 326 326 324 319 322
292 300 299 296 294 290 299 288 299 303 305 308 309 310 311 313 313 314 319 320 320 324 328 329 330 332 333 335 332 331 328 327 329 331 332 332 332 331 330 329 329 329 329 327 326 326 325 324 318
296 302 299 298 294 294 294 290 296 301 300 304 307 309 311 311 313 313 315 318 321 324 325 328 329 331 332 333 333 331 330 330 331 330 331 331 332 331 330 329 329 328 328 328 327 326 325 324 323
302 299 298 298 295 287 292 292 293 297 300 303 307 309 311 312 313 313 314 315 316 320 324 328 328 329 331 332 333 332 330 330 329 329 330 331 331 331 330 329 329 328 328 327 327 326 326 324 324
300 294 286 285 285 284 294 291 295 301 304 305 306 307 309 310 311 311 312 313 315 317 319 321 325 326 328 330 331 332 332 331 329 330 330 330 330 329 329 329 328 328 328 328 327 326 325 325 323
296 295 287 280 282 286 291 287 294 303 305 307 307 309 309 309 310 310 311 312 314 316 318 318 319 322 325 328 329 331 332 332 331 330 330 331 330 330 331 329 329 328 328 328 327 326 325 325 324
295 291 297 289 284 285 290 294 299 302 302 303 303 305 306 307 307 307 308 309 311 312 316 317 318 321 323 325 328 329 330 331 330 331 331 331 332 330 330 329 328 328 327 327 326 325 324 324 323
298 300 288 289 281 280 286 289 291 297 298 301 302 303 304 304 305 306 307 308 309 310 312 314 316 317 321 323 325 326 327 329 330 331 330 330 331 330 329 328 328 327 327 327 326 324 324 322 321
293 292 293 292 288 284 283 288 298 299 301 300 300 302 303 301 302 304 306 308 308 309 309 309 311 314 317 320 323 325 326 327 329 329 330 330 330 329 328 327 327 326 326 325 324 323 322 320 319
298 294 293 286 285 288 287 288 301 301 302 300 301 302 302 301 303 304 305 307 307 307 308 306 307 310 314 319 321 322 324 325 326 326 328 329 328 329 328 327 325 325 324 324 323 320 317 317 315
Wind_Speed
19 11 8 6 7 4 2 4 2 5 4 4 5 2 7 8 7 5 5 5 12 10 14 11 9 12 13 12 10 11 10 12 12 12 12 12 12 11 12 14 11 13 16 15 14 15 15 15 14
14 11 5 3 6 6 3 4 3 5 6 5 4 2 3 6 5 7 7 6 12 10 12 12 10 12 13 12 10 9 10 9 11 11 12 12 12 11 12 13 11 15 16 14 14 15 14 13 12
14 7 6 4 5 8 4 2 6 7 6 3 3 3 4 5 6 10 6 12 12 9 11 14 11 12 13 11 11 10 9 10 10 11 12 12 12 11 11 12 13 13 13 14 14 13 13 12 11
6 5 4 7 7 2 4 3 7 9 4 2 2 3 4 5 4 7 12 12 12 9 10 12 12 12 12 11 11 11 11 12 10 12 11 12 11 10 9 11 13 12 14 13 12 12 12 11 9
6 4 6 6 5 2 1 1 8 9 7 6 4 3 2 5 6 8 12 11 12 9 10 12 10 10 11 12 12 11 11 11 12 12 10 11 11 9 8 12 11 10 12 12 12 11 10 9 9
5 4 6 8 5 3 2 2 7 8 5 5 4 2 4 8 9 10 11 10 11 11 11 12 10 9 9 11 12 12 10 10 10 11 12 10 11 8 6 9 11 9 10 11 11 9 8 8 8
10 6 10 7 8 3 2 4 7 6 6 5 2 3 6 9 10 11 11 11 9 10 9 11 11 10 7 9 10 10 10 10 9 9 10 10 9 9 7 6 8 10 10 9 8 7 7 7 8
6 6 9 8 7 6 4 6 3 5 4 5 2 2 6 11 12 10 11 11 10 9 9 9 10 11 11 11 8 9 10 9 9 9 11 9 8 7 5 6 8 9 8 7 6 5 5 7 6
4 8 10 10 7 3 4 7 3 4 3 6 6 2 6 16 14 11 10 10 10 9 9 9 10 11 10 9 10 7 7 7 7 8 9 9 8 9 9 4 8 8 7 5 4 4 5 7 5
7 9 12 3 5 4 5 7 5 6 9 9 9 7 7 14 13 13 13 12 12 12 11 10 10 11 12 6 10 9 9 8 8 9 10 9 8 8 6 7 6 5 4 3 3 4 4 8 6
6 13 7 4 4 5 5 5 5 9 9 10 11 13 12 14 13 13 14 14 14 13 11 11 11 10 11 6 6 3 4 5 6 9 9 6 6 4 5 5 5 6 6 6 6 5 6 1 2
10 11 7 2 1 2 8 6 7 13 10 6 4 4 14 15 15 15 15 15 14 14 13 12 12 12 11 8 6 5 4 5 5 7 9 6 5 7 6 5 7 5 5 5 4 4 2 3 3
14 13 7 7 5 6 4 9 10 10 13 4 2 5 12 13 15 15 15 14 13 15 14 14 13 12 11 11 8 6 6 7 7 7 9 7 7 6 6 6 6 6 6 5 5 4 5 5 4
5 14 11 7 10 7 8 11 4 9 12 11 8 10 11 14 15 14 15 15 16 15 15 14 14 12 12 11 11 9 9 9 8 8 8 10 7 6 7 6 6 6 6 6 5 5 5 4 3
6 9 11 13 14 12 5 15 19 13 4 11 11 12 11 12 14 17 16 16 16 16 15 16 16 15 14 14 11 9 8 9 8 8 10 11 10 8 8 7 6 6 6 6 5 5 5 5 4
10 12 17 15 14 7 8 19 17 18 15 13 13 12 12 13 15 15 15 16 17 17 17 16 13 16 16 14 11 9 9 9 9 9 9 11 11 10 9 7 7 7 6 7 7 7 5 4 4
12 17 21 17 10 11 13 13 17 16 13 14 15 16 15 14 14 15 16 16 17 17 17 18 18 18 18 15 11 11 11 9 9 9 8 12 12 12 9 7 7 8 6 6 6 6 6 4 4
14 17 17 14 11 13 17 17 18 9 6 13 16 17 18 16 16 16 16 16 16 16 17 18 16 18 16 12 10 8 8 9 9 9 9 13 11 13 11 8 8 8 7 6 6 7 6 6 3
9 8 19 15 3 6 15 17 20 18 20 20 19 18 16 15 16 16 14 16 16 16 18 18 18 18 13 11 11 10 10 9 9 9 12 13 12 13 12 8 9 8 8 8 8 7 8 4 4
6 6 11 6 1 4 12 19 20 20 21 20 21 20 21 20 16 16 16 15 17 19 18 18 18 17 15 12 11 10 9 9 10 9 11 13 13 13 12 11 10 10 8 10 9 9 7 7 6
10 11 7 8 5 10 11 23 22 25 23 23 23 21 21 21 21 19 16 18 17 18 18 19 19 19 18 18 11 9 9 10 10 10 10 12 14 14 14 14 11 10 9 8 10 10 11 8 6
18 16 10 10 5 3 1 11 16 17 17 16 15 17 21 22 21 21 19 18 19 17 16 17 18 19 17 18 15 17 13 12 12 11 10 11 15 15 15 14 13 12 9 11 9 9 10 10 9
13 16 19 16 8 10 14 9 7 10 15 17 17 21 21 20 19 19 18 18 17 12 15 14 16 17 18 18 18 14 16 12 10 10 14 14 12 15 15 15 14 13 10 12 12 11 12 9 9
8 7 12 12 8 8 16 15 11 11 13 13 17 15 15 14 12 13 12 11 11 9 8 12 15 17 17 18 19 20 18 16 12 13 12 11 11 11 16 16 14 14 13 13 12 13 13 12 11
13 15 4 6 6 8 4 10 14 12 10 13 11 6 4 5 6 7 8 8 9 11 11 11 15 17 17 19 19 20 20 18 18 15 12 12 11 11 14 16 15 13 14 14 13 13 13 12 12
14 13 5 5 6 4 1 11 5 11 14 16 15 11 8 8 8 9 9 10 10 9 11 13 15 17 17 18 20 18 20 14 14 15 12 11 11 11 13 14 14 15 15 14 13 11 11 12 11
9 9 5 3 2 2 8 12 14 15 12 9 7 7 5 5 9 9 9 8 10 10 9 11 13 16 16 18 16 17 18 19 16 18 15 12 12 10 12 13 13 14 14 14 13 11 12 11 11
7 11 4 2 5 7 9 13 11 4 5 4 2 4 4 7 7 10 10 8 7 9 9 10 12 14 14 14 15 15 17 17 17 15 16 16 14 13 11 12 13 13 13 13 12 12 12 12 9
4 6 2 4 3 5 5 8 6 5 7 8 8 4 5 5 4 9 9 8 7 5 6 9 10 10 11 12 13 14 14 16 15 14 14 14 12 12 13 13 12 12 12 13 13 12 12 10 11
17 10 7 6 6 6 4 11 5 7 1 4 6 7 2 3 4 6 6 10 11 9 6 5 7 8 9 9 11 12 12 12 13 14 14 13 13 13 12 11 12 14 14 13 11 10 6 10 11
Wind_Direction
306 319 293 255 263 236 277 107 85 120 133 48 75 333 7 26 357 17 126 110 132 136 122 143 142 128 122 115 110 107 106 106 102 105 103 99 101 96 94 91 86 105 95 90 92 93 90 88 83
309 315 245 286 264 267 89 93 163 101 77 114 125 223 230 74 68 100 147 183 143 142 143 135 136 128 128 124 120 114 110 100 103 104 102 97 100 100 95 98 91 96 93 93 99 93 89 88 84
293 280 272 280 273 267 335 85 113 108 112 159 159 310 2 63 73 141 111 167 144 146 126 118 131 134 135 135 131 124 118 101 98 96 97 100 104 105 99 103 98 102 101 105 102 100 96 88 79
310 213 206 249 255 316 307 109 139 140 140 180 314 174 127 33 121 152 142 163 153 134 123 129 134 140 142 143 136 132 120 117 110 106 102 104 100 102 101 102 95 100 105 109 108 101 89 87 83
248 251 261 251 261 291 295 337 168 172 142 158 185 110 80 120 109 123 151 166 136 150 133 149 141 152 151 154 145 137 132 131 122 117 106 105 108 123 108 108 106 111 115 112 106 106 105 95 83
260 284 252 248 223 142 251 196 198 188 150 118 199 220 101 127 144 151 162 169 160 163 151 141 147 153 157 162 151 147 143 129 127 131 127 123 126 130 123 116 123 119 102 107 121 122 114 103 83
279 264 272 292 288 238 196 186 208 194 176 175 51 259 87 159 140 157 168 172 171 149 170 157 168 163 155 161 152 143 141 142 133 130 128 126 122 128 130 123 135 128 128 132 133 136 129 108 89
277 275 266 251 263 255 129 188 299 229 169 99 221 249 117 147 140 169 168 173 172 160 177 176 175 172 169 159 150 146 144 143 143 143 126 120 115 108 128 144 147 139 137 135 130 116 128 117 97
275 254 250 249 241 224 142 212 152 8 232 210 175 327 90 128 145 167 178 182 179 173 185 183 179 184 165 167 153 141 140 144 132 134 139 149 156 176 168 103 128 139 142 144 136 128 122 129 119
243 244 254 342 294 259 171 223 194 223 212 216 189 149 142 139 165 173 184 189 195 186 188 186 182 184 161 163 155 181 162 177 185 181 172 197 168 163 183 127 122 123 133 145 155 155 177 203 172
218 252 262 233 278 294 252 223 225 228 239 243 209 178 173 156 178 187 194 199 200 195 187 196 189 187 175 168 172 169 171 191 194 194 192 197 184 160 174 159 174 177 192 192 190 185 222 222 269
251 250 275 293 240 259 252 266 219 237 244 30 248 171 174 179 188 195 201 206 202 200 197 197 194 192 193 156 185 177 189 194 193 200 198 196 195 185 200 181 186 193 180 214 218 210 220 223 243
238 257 258 249 232 257 293 254 249 246 249 167 193 193 187 196 194 199 203 200 223 207 201 197 199 200 196 185 185 189 204 199 198 195 199 203 202 195 201 200 195 196 199 202 206 221 209 222 234
257 237 239 240 252 252 249 253 219 228 235 222 200 213 209 206 200 196 203 206 206 220 206 203 205 209 204 203 198 195 200 195 203 198 198 209 213 203 204 201 207 208 208 212 218 208 220 227 231
202 231 228 235 237 242 257 250 237 248 181 235 221 232 218 216 211 208 203 208 206 215 213 203 201 205 211 209 209 209 206 205 200 200 201 201 211 209 208 208 208 210 208 227 224 223 235 241 231
208 230 248 227 217 222 216 260 244 223 230 235 237 229 227 221 217 214 210 210 211 212 208 209 204 206 207 208 208 207 210 208 208 207 202 201 207 214 206 212 212 213 211 210 218 218 224 228 230
208 226 227 242 197 232 219 260 253 250 224 247 248 251 239 234 220 219 216 213 211 213 208 209 205 208 213 209 210 205 210 207 212 209 207 201 207 210 214 217 218 210 213 219 226 224 223 220 223
217 229 254 245 204 218 245 244 259 241 254 258 252 254 254 242 236 228 218 213 215 216 214 211 208 209 208 212 212 209 207 209 212 211 208 207 204 207 208 215 216 217 215 220 218 228 225 235 221
309 329 262 241 3 282 253 257 260 258 260 249 249 257 254 250 246 239 223 215 214 218 217 218 211 208 204 203 208 209 209 209 214 213 209 208 207 204 209 215 214 212 219 220 221 220 231 215 230
339 288 284 281 151 284 273 273 275 269 260 258 261 255 254 252 246 245 232 217 214 219 219 220 220 211 207 202 206 207 210 214 215 211 216 213 210 208 205 212 215 212 213 220 223 222 224 233 180
227 254 240 269 284 259 289 272 257 258 251 250 251 251 256 255 250 241 230 226 223 218 215 216 216 215 210 210 204 203 207 214 217 212 209 214 215 208 209 211 213 214 215 219 219 220 216 225 205
214 184 201 227 252 254 191 290 268 277 278 236 246 247 250 245 244 247 246 222 213 222 219 219 216 212 215 207 210 204 204 206 212 208 209 210 213 216 207 212 214 214 212 218 221 217 219 216 228
243 184 201 217 225 282 248 250 269 245 258 256 258 247 241 242 248 250 248 244 254 233 214 222 224 217 213 211 208 215 214 218 212 214 216 212 211 212 213 208 212 213 215 218 218 216 218 220 220
117 141 205 225 225 243 237 239 268 258 265 265 254 253 254 255 259 264 264 272 274 259 229 216 221 222 216 210 212 216 218 214 213 216 215 216 208 206 211 210 209 212 214 215 216 221 217 219 226
167 165 172 187 206 248 155 225 245 271 261 260 275 327 356 349 319 297 289 271 254 245 245 227 224 227 219 214 213 214 222 218 224 221 217 213 213 209 206 208 209 211 214 216 215 217 221 219 223
197 176 175 214 193 263 142 240 242 253 267 264 267 282 290 302 315 317 316 300 286 266 246 232 228 232 224 217 218 214 218 222 219 221 220 218 216 215 208 205 210 213 214 216 217 220 221 220 224
170 212 281 313 124 267 233 254 263 254 251 264 272 273 281 15 5 357 346 330 309 297 261 246 241 232 226 223 218 217 218 218 222 219 217 218 213 219 207 206 208 215 215 216 215 220 223 219 226
221 153 128 181 212 233 248 252 251 263 217 226 263 354 20 6 25 11 360 336 328 314 303 279 254 249 239 233 224 219 221 221 222 222 218 217 215 209 206 207 208 212 217 216 216 223 225 224 223
137 172 170 134 226 269 272 246 9 218 259 81 71 2 8 21 351 343 338 336 329 312 295 284 273 260 246 240 234 226 224 226 224 224 223 218 216 209 208 207 213 212 214 217 219 218 223 222 222
209 185 156 188 194 245 318 257 307 296 172 79 19 36 37 230 294 312 323 332 335 328 305 273 268 268 261 250 245 241 234 227 228 224 223 219 216 213 211 209 212 218 218 218 212 213 199 214 216